Location: Sobotiste
(48.7170°N, 17.4000°E)
Time: 16:21:46
(UTC+01:00)

ISS - Visible Passes

Search period start: 20 March 2019 00:00
Search period end: 30 March 2019 00:00
Orbit: 406 x 411 km, 51.6° (Epoch: 21 March)

Date Brightness Start Highest point End Pass type
(mag) Time Alt. Az. Time Alt. Az. Time Alt. Az.
21 Mar -1.6 18:55:23 10° SE 18:55:56 10° SE 18:56:05 10° SE visible
21 Mar -1.0 20:28:40 10° SW 20:28:53 11° SW 20:28:53 11° SW visible
22 Mar -3.0 19:37:56 10° SSW 19:40:45 33° SSE 19:40:45 33° SSE visible
23 Mar -2.3 18:47:29 10° SSW 18:50:03 21° SE 18:52:26 11° E visible
23 Mar -2.6 20:23:01 10° WSW 20:25:12 39° WSW 20:25:12 39° WSW visible
24 Mar -3.8 19:32:00 10° SW 19:35:17 65° SSE 19:36:40 31° E visible
24 Mar -0.8 21:08:42 10° W 21:09:25 15° W 21:09:25 15° W visible
25 Mar -3.3 18:41:09 10° SW 18:44:16 42° SSE 18:47:25 10° ENE visible
25 Mar -3.4 20:17:32 10° W 20:20:43 59° NNW 20:20:43 59° NNW visible
26 Mar -3.7 19:26:22 10° WSW 19:29:41 76° NNW 19:31:54 19° ENE visible
26 Mar -1.3 21:03:15 10° WNW 21:04:39 22° WNW 21:04:39 22° WNW visible
27 Mar -3.2 20:12:04 10° W 20:15:17 49° N 20:15:43 45° NNE visible
28 Mar -3.2 19:20:51 10° W 19:24:07 54° N 19:26:44 15° ENE visible
28 Mar -1.7 20:57:42 10° WNW 20:59:28 28° WNW 20:59:28 28° WNW visible
29 Mar -3.2 20:06:32 10° WNW 20:09:46 49° N 20:10:24 42° NE visible
